Regional Weather Roundup
Issued by NWS State College, PA

Home | Current Version | Previous Version | Text Only | Print | Product List | Glossary On
Versions: 1 2 3 4 5 6 7 8 9 10 11 12 13 14 15 16 17 18 19 20 21 22 23 24 25 26 27 28 29 30 31 32 33 34 35 36 37 38 39 40 41 42 43 44 45 46 47 48 49 50
000
ASUS41 KCTP 070303
RWRCTP

REGIONAL WEATHER ROUNDUP
NATIONAL WEATHER SERVICE STATE COLLEGE PA
1100 PM EDT WED MAY 06 2015

Note: "fair" indicates few or no clouds below 12,000 feet with no
significant weather and/or obstructions to visibility.

* = STATION THAT DOES NOT REPORT PRECIPITATION /E.G. RAIN...SNOW...ETC/
    THUNDER OR FOG.

PAZ002>004-007>009-013>016-020>023-029>032-070400-
WESTERN PENNSYLVANIA

CITY           SKY/WX    TMP DP  RH WIND       PRES   REMARKS
ERIE           CLEAR     59  53  80 CALM      30.18S
MEADVILLE      CLEAR     62  55  77 CALM      30.18S
FRANKLIN*      CLEAR     63  54  72 SE6       30.21S
NEW CASTLE     FAIR      64  60  87 CALM      30.19R
BEAVER COUNTY  NOT AVBL
BUTLER*        CLEAR     64  57  77 E6        30.20S
PITTSBURGH INT PTCLDY    70  59  68 E6        30.17R
PITTSBURGH     CLEAR     66  58  75 NE5       30.17S
INDIANA*       MOCLDY    63  61  94 E5        30.23F
LATROBE        NOT AVBL
WASHINGTON CO* CLEAR     63  55  77 CALM      30.20R
$$

PAZ004>006-010>012-017>019-024>028-033>037-041-042-045-046-049>053-070400-
CENTRAL PENNSYLVANIA

CITY           SKY/WX    TMP DP  RH WIND       PRES   REMARKS
BRADFORD       FOG       55  54  96 SE8       30.23S VSB 1/2
DUBOIS         CLEAR     59  56  89 E7        30.21S
CLEARFIELD     MOCLDY    56  54  93 E7        30.24S
JOHNSTOWN      MOCLDY    60  58  92 S5        30.23S FOG
ALTOONA        CLOUDY    59  57  93 E3        30.24S FOG
STATE COLLEGE  MOCLDY    55  54  95 NE3       30.24
WILLIAMSPORT   MOCLDY    56  54  93 CALM      30.23S
SELINSGROVE    MOCLDY    58  56  93 CALM      30.24S
FT INDIANTOWN  MOCLDY    60  49  68 NE3       30.23S
CAPITAL CITY   CLOUDY    59  52  77 SE5       30.23S
HARRISBURG     CLOUDY    59  53  80 CALM      30.22F
YORK           MOCLDY    60  50  69 E3        30.22S
$$

PAZ038>040-043-044-047-048-054-055-060>062-067>071-070400-
EASTERN PENNSYLVANIA

CITY           SKY/WX    TMP DP  RH WIND       PRES   REMARKS
SCRANTON       CLEAR     58  48  69 E5        30.24R
MOUNT POCONO   CLEAR     48  45  89 CALM      30.25S
ALLENTOWN      PTCLDY    60  47  61 CALM      30.24R
QUAKERTOWN*    CLEAR     54  48  82 CALM      30.25S
READING        CLOUDY    59  49  69 CALM      30.23R
LANCASTER      MOCLDY    58  50  75 E6        30.22S
COATESVILLE    PTCLDY    59  48  67 E8        30.23F
POTTSTOWN      MOCLDY    56  49  77 CALM      30.25S
BLUE BELL      CLEAR     57  52  82 CALM      30.23F
DOYLESTOWN     PTCLDY    55  48  77 CALM      30.23F
WILLOW GROVE   NOT AVBL
NORTH PHILA    CLEAR     59  47  64 NE6       30.25F
PHILADELPHIA   PTCLDY    60  50  69 NE5       30.23F
$$


USA.gov is the U.S. government's official web portal to all federal, state and local government web resources and services.